Date String (YYYY-MM-DD hh:mm:ss) UTC,Instrument flags,Ambient pressure (hPa),Sample flow (lpm),Bypass flow (lpm),Sample temperature (°C),Ambient temperature (°C),ASC tube jacket temperature (°C),LED temperature (°C),Box temperature (°C),Sample RH (%),Span deviation,Mass concentration (μg/m³),Mass concentration (μg/m³),Mass concentration (μg/m³)
DateTimeUTC,F1_M11,P_M11,Q1_M11,Q2_M11,T1_M11,T2_M11,T3_M11,T4_M11,T5_M11,U1_M11,ZSPAN_M11,X0_M11,X2_M11,X1_M11
2022-07-29 22:00:00,,0829.8,5.01,0.00,29.7,28.4,00.0,38.4,31.5,28.9,0000.0,0007.66,0004.34,0003.97
2022-07-29 22:01:00,,0829.7,5.00,0.00,29.7,28.5,00.0,38.5,31.6,29.1,0000.0,0008.58,0004.26,0003.90
2022-07-29 22:02:00,,0829.6,4.99,0.00,29.7,28.6,00.0,38.5,31.6,28.3,0000.0,0008.80,0004.18,0003.82
2022-07-29 22:03:00,,0829.5,5.01,0.00,29.7,28.2,00.0,38.5,31.5,27.9,0000.0,0009.28,0004.10,0003.73
2022-07-29 22:04:00,,0829.5,5.01,0.00,29.7,27.5,00.0,38.4,31.3,27.2,0000.0,0009.10,0003.99,0003.64
2022-07-29 22:05:00,,0829.6,4.99,0.00,29.6,27.1,00.0,38.4,31.2,27.1,0000.0,0008.67,0003.88,0003.53
2022-07-29 22:06:00,,0829.5,5.01,0.00,29.5,27.1,00.0,38.4,31.1,27.1,0000.0,0008.39,0003.80,0003.44
2022-07-29 22:07:00,,0829.6,4.99,0.00,29.5,27.2,00.0,38.3,31.2,27.0,0000.0,0008.25,0003.70,0003.36
2022-07-29 22:08:00,,0829.6,5.00,0.00,29.5,27.3,00.0,38.3,31.2,26.9,0000.0,0008.09,0003.59,0003.28
2022-07-29 22:09:00,,0829.6,5.01,0.00,29.5,27.5,00.0,38.3,31.2,27.4,0000.0,0007.89,0003.48,0003.20
2022-07-29 22:10:00,,0829.6,5.00,0.00,29.5,27.7,00.0,38.3,31.3,27.3,0000.0,0007.73,0003.40,0003.14
2022-07-29 22:11:00,,0829.7,4.99,0.00,29.5,27.9,00.0,38.3,31.3,27.8,0000.0,0007.63,0003.32,0003.04
2022-07-29 22:12:00,,0829.7,5.00,0.00,29.5,28.0,00.0,38.3,31.4,27.2,0000.0,0005.92,0003.22,0002.91
2022-07-29 22:13:00,,0829.7,5.00,0.00,29.5,28.2,00.0,38.3,31.4,26.9,0000.0,0005.11,0003.15,0002.80
2022-07-29 22:14:00,,0829.7,4.99,0.00,29.5,28.3,00.0,38.3,31.5,27.3,0000.0,0003.79,0003.08,0002.73
2022-07-29 22:15:00,,0829.6,5.00,0.00,29.6,28.4,00.0,38.3,31.5,27.1,0000.0,0003.69,0003.02,0002.68
2022-07-29 22:16:00,,0829.7,4.99,0.00,29.6,28.5,00.0,38.3,31.6,24.9,0000.0,0003.76,0002.98,0002.64
2022-07-29 22:17:00,,0829.6,5.01,0.00,29.6,28.6,00.0,38.4,31.6,25.2,0000.0,0003.72,0002.95,0002.61
2022-07-29 22:18:00,,0829.5,5.01,0.00,29.7,28.2,00.0,38.3,31.5,26.1,0000.0,0003.69,0002.92,0002.57
2022-07-29 22:19:00,,0829.6,5.00,0.00,29.6,27.5,00.0,38.3,31.3,26.4,0000.0,0003.72,0002.93,0002.56
2022-07-29 22:20:00,,0829.6,4.99,0.00,29.6,27.2,00.0,38.3,31.2,26.2,0000.0,0003.74,0002.93,0002.55
2022-07-29 22:21:00,,0829.5,5.01,0.00,29.5,27.1,00.0,38.3,31.2,25.2,0000.0,0003.67,0002.91,0002.56
2022-07-29 22:22:00,,0829.5,4.99,0.00,29.4,27.3,00.0,38.2,31.2,26.1,0000.0,0004.08,0002.89,0002.56
2022-07-29 22:23:00,,0829.5,5.00,0.00,29.4,27.4,00.0,38.2,31.2,26.3,0000.0,0004.47,0002.91,0002.58
2022-07-29 22:24:00,,0829.5,5.00,0.00,29.4,27.6,00.0,38.2,31.2,26.3,0000.0,0004.51,0002.96,0002.62
2022-07-29 22:25:00,,0829.5,5.00,0.00,29.4,27.8,00.0,38.2,31.3,26.4,0000.0,0004.52,0002.98,0002.64
2022-07-29 22:26:00,,0829.5,5.00,0.00,29.5,27.9,00.0,38.2,31.4,26.3,0000.0,0004.55,0002.98,0002.65
2022-07-29 22:27:00,,0829.5,5.00,0.00,29.5,28.1,00.0,38.2,31.4,26.8,0000.0,0004.52,0002.99,0002.68
2022-07-29 22:28:00,,0829.4,4.99,0.00,29.5,28.2,00.0,38.3,31.4,26.2,0000.0,0005.99,0002.97,0002.70
2022-07-29 22:29:00,,0829.4,5.01,0.00,29.5,28.4,00.0,38.3,31.5,27.8,0000.0,0006.10,0003.00,0002.74
2022-07-29 22:30:00,,0829.4,4.99,0.00,29.6,28.5,00.0,38.3,31.5,28.1,0000.0,0006.05,0002.98,0002.73
2022-07-29 22:31:00,,0829.4,5.01,0.00,29.6,28.6,00.0,38.3,31.6,27.3,0000.0,0006.06,0002.99,0002.74
2022-07-29 22:32:00,,0829.3,4.99,0.00,29.6,28.4,00.0,38.3,31.6,26.6,0000.0,0006.11,0003.00,0002.74
2022-07-29 22:33:00,,0829.4,5.00,0.00,29.6,27.8,00.0,38.3,31.4,26.5,0000.0,0005.76,0002.99,0002.73
2022-07-29 22:34:00,,0829.2,5.00,0.00,29.5,27.2,00.0,38.3,31.3,26.6,0000.0,0005.22,0002.98,0002.72
2022-07-29 22:35:00,,0829.3,4.99,0.00,29.5,27.1,00.0,38.3,31.2,27.3,0000.0,0005.23,0002.96,0002.71
2022-07-29 22:36:00,,0829.3,5.01,0.00,29.4,27.2,00.0,38.2,31.1,27.2,0000.0,0005.40,0002.96,0002.69
2022-07-29 22:37:00,,0829.3,4.99,0.00,29.4,27.4,00.0,38.2,31.2,27.5,0000.0,0005.49,0002.97,0002.68
2022-07-29 22:38:00,,0829.3,5.00,0.00,29.4,27.5,00.0,38.2,31.2,26.9,0000.0,0005.85,0002.95,0002.65
2022-07-29 22:39:00,,0829.3,5.00,0.00,29.4,27.7,00.0,38.2,31.3,26.8,0000.0,0004.68,0002.94,0002.63
2022-07-29 22:40:00,,0829.3,5.01,0.00,29.4,27.9,00.0,38.2,31.3,27.3,0000.0,0004.12,0002.90,0002.61
2022-07-29 22:41:00,,0829.4,5.01,0.00,29.4,28.0,00.0,38.2,31.4,28.5,0000.0,0004.03,0002.87,0002.59
2022-07-29 22:42:00,,0829.3,4.99,0.00,29.5,28.2,00.0,38.2,31.4,28.2,0000.0,0004.00,0002.85,0002.58
2022-07-29 22:43:00,,0829.2,5.01,0.00,29.5,28.3,00.0,38.3,31.5,29.0,0000.0,0003.95,0002.83,0002.55
2022-07-29 22:44:00,,0829.2,4.99,0.00,29.5,28.5,00.0,38.3,31.5,29.3,0000.0,0004.05,0002.87,0002.54
2022-07-29 22:45:00,,0829.2,5.00,0.00,29.6,28.6,00.0,38.3,31.6,29.4,0000.0,0004.07,0002.88,0002.52
2022-07-29 22:46:00,,0829.2,5.01,0.00,29.6,28.6,00.0,38.3,31.6,28.2,0000.0,0004.16,0002.90,0002.52
2022-07-29 22:47:00,,0829.3,4.99,0.00,29.6,28.1,00.0,38.3,31.5,28.4,0000.0,0004.07,0002.95,0002.55
2022-07-29 22:48:00,,0829.2,4.99,0.00,29.6,27.4,00.0,38.3,31.3,28.0,0000.0,0004.08,0003.02,0002.61
2022-07-29 22:49:00,,0829.2,5.01,0.00,29.5,27.2,00.0,38.3,31.3,28.6,0000.0,0003.85,0003.11,0002.70
2022-07-29 22:50:00,,0829.2,4.99,0.00,29.4,27.2,00.0,38.2,31.2,28.7,0000.0,0003.81,0003.17,0002.80
2022-07-29 22:51:00,,0829.2,5.01,0.00,29.4,27.3,00.0,38.2,31.2,28.3,0000.0,0003.87,0003.21,0002.87
2022-07-29 22:52:00,,0829.3,4.99,0.00,29.4,27.5,00.0,38.2,31.2,29.0,0000.0,0003.94,0003.25,0002.96
2022-07-29 22:53:00,,0829.2,5.01,0.00,29.4,27.7,00.0,38.2,31.3,28.8,0000.0,0004.01,0003.30,0003.06
2022-07-29 22:54:00,,0829.2,5.00,0.00,29.4,27.8,00.0,38.2,31.3,28.8,0000.0,0004.11,0003.36,0003.16
2022-07-29 22:55:00,,0829.3,4.99,0.00,29.4,28.0,00.0,38.2,31.4,29.2,0000.0,0004.15,0003.40,0003.22
2022-07-29 22:56:00,,0829.2,5.01,0.00,29.5,28.2,00.0,38.2,31.4,29.5,0000.0,0004.26,0003.45,0003.28
2022-07-29 22:57:00,,0829.2,5.01,0.00,29.5,28.3,00.0,38.3,31.5,28.9,0000.0,0004.22,0003.47,0003.31
2022-07-29 22:58:00,,0829.3,4.99,0.00,29.5,28.4,00.0,38.3,31.5,29.8,0000.0,0004.09,0003.45,0003.32
2022-07-29 22:59:00,,0829.2,5.01,0.00,29.6,28.5,00.0,38.3,31.6,28.7,0000.0,0004.06,0003.44,0003.32
